Check out our new BloomSky Weather System.

Active alerts


No alerts


Thunder radar  blitzortung!


Rain radar more information rain snow radar


Visit our other weather sites:

Template documentation
and downloads

And another site



Weather Underground History page Text

Daily Summary for May 13, 2017 Units:  Metric    English   Both
« Previous Day
Next Day »
Daily Weekly Monthly Yearly Custom
  High: Low: Average:
Temperature: 30.6 °C 16.3 °C 23.7 °C
Dew Point: 19.4 °C 14.7 °C 17.3 °C
Humidity: 92 % 46 % 69 %
Wind Speed: 11.3 km/h 0 km/h 2.4 km/h
Wind Gust: 22.5 km/h - -
Wind:- - WSW
Pressure: 1013.4 hPa 1010 hPa -
Precipitation: 0 mm    
Historical Graphs
 
 
Tabular Data for May 13, 2017
Time Temperature Dew Point Pressure Wind Wind Speed Wind Gust Humidity Rainfall Rate (Hourly)
00:01 21.7 °C 15.5 °C 1011.7 hPa NW 3.2 km/h 8 km/h 68 % 0 mm
00:06 21.6 °C 15.7 °C 1011.7 hPa NNW 1.6 km/h 6.4 km/h 69 % 0 mm
00:11 21.5 °C 15.6 °C 1011.7 hPa Calm   6.4 km/h 69 % 0 mm
00:16 21.4 °C 15.7 °C 1011.7 hPa NW 1.6 km/h 6.4 km/h 70 % 0 mm
00:21 21.3 °C 15.6 °C 1011.7 hPa NNW 3.2 km/h 6.4 km/h 70 % 0 mm
00:26 21.3 °C 15.6 °C 1011.7 hPa NW 1.6 km/h 4.8 km/h 70 % 0 mm
00:31 21.2 °C 15.7 °C 1011.7 hPa NW 1.6 km/h 4.8 km/h 71 % 0 mm
00:36 21.2 °C 15.7 °C 1012.1 hPa NNW 3.2 km/h 4.8 km/h 71 % 0 mm
00:41 21.1 °C 15.6 °C 1012.1 hPa NW 1.6 km/h 4.8 km/h 71 % 0 mm
00:46 21 °C 15.8 °C 1012.1 hPa NNE 1.6 km/h 4.8 km/h 72 % 0 mm
00:51 20.9 °C 15.7 °C 1012.1 hPa NW 1.6 km/h 4.8 km/h 72 % 0 mm
00:56 20.8 °C 15.6 °C 1012.1 hPa NW 1.6 km/h 4.8 km/h 72 % 0 mm
01:01 20.8 °C 15.8 °C 1012.1 hPa NW 1.6 km/h 4.8 km/h 73 % 0 mm
01:02 20.8 °C 15.8 °C 1012.1 hPa Calm   4.8 km/h 73 % 0 mm
01:07 20.7 °C 15.7 °C 1012.1 hPa NW 1.6 km/h 4.8 km/h 73 % 0 mm
01:12 20.7 °C 15.7 °C 1012.1 hPa NW 1.6 km/h 4.8 km/h 73 % 0 mm
01:17 20.6 °C 15.6 °C 1012.1 hPa Calm   4.8 km/h 73 % 0 mm
01:22 20.4 °C 15.6 °C 1012.1 hPa Calm   4.8 km/h 74 % 0 mm
01:27 20.2 °C 15.4 °C 1012.1 hPa Calm   4.8 km/h 74 % 0 mm
01:32 20 °C 15.4 °C 1012.1 hPa Calm   3.2 km/h 75 % 0 mm
01:37 19.8 °C 15.2 °C 1012.1 hPa Calm   1.6 km/h 75 % 0 mm
01:42 19.6 °C 15.3 °C 1011.7 hPa Calm   1.6 km/h 76 % 0 mm
01:47 19.4 °C 15.3 °C 1011.7 hPa Calm   1.6 km/h 77 % 0 mm
01:52 19.4 °C 15.5 °C 1011.7 hPa WNW 1.6 km/h 1.6 km/h 78 % 0 mm
01:57 19.4 °C 15.5 °C 1011.7 hPa Calm   1.6 km/h 78 % 0 mm
02:02 19.4 °C 15.5 °C 1011.7 hPa Calm   1.6 km/h 78 % 0 mm
02:07 19.4 °C 15.5 °C 1011.7 hPa WNW 1.6 km/h 1.6 km/h 78 % 0 mm
02:12 19.4 °C 15.5 °C 1011.7 hPa Calm   1.6 km/h 78 % 0 mm
02:17 19.3 °C 15.6 °C 1011.4 hPa NW 1.6 km/h 3.2 km/h 79 % 0 mm
02:22 19.3 °C 15.6 °C 1011.4 hPa Calm   3.2 km/h 79 % 0 mm
02:27 19.2 °C 15.5 °C 1011.4 hPa Calm   3.2 km/h 79 % 0 mm
02:32 19.2 °C 15.5 °C 1011.4 hPa NW 1.6 km/h 3.2 km/h 79 % 0 mm
02:37 19.2 °C 15.5 °C 1011.4 hPa Calm   4.8 km/h 79 % 0 mm
02:42 19.1 °C 15.4 °C 1011.4 hPa Calm   4.8 km/h 79 % 0 mm
02:47 19 °C 15.5 °C 1011.4 hPa Calm   4.8 km/h 80 % 0 mm
02:52 18.8 °C 15.3 °C 1011.4 hPa Calm   1.6 km/h 80 % 0 mm
02:57 18.8 °C 15.5 °C 1011.4 hPa Calm     81 % 0 mm
03:02 18.7 °C 15.4 °C 1011.4 hPa Calm   1.6 km/h 81 % 0 mm
03:07 18.6 °C 15.3 °C 1011.4 hPa Calm   1.6 km/h 81 % 0 mm
03:12 18.6 °C 15.5 °C 1011.4 hPa Calm   1.6 km/h 82 % 0 mm
03:17 18.5 °C 15.4 °C 1011.4 hPa Calm   1.6 km/h 82 % 0 mm
03:22 18.4 °C 15.3 °C 1011.4 hPa Calm   1.6 km/h 82 % 0 mm
03:27 18.5 °C 15.6 °C 1011.1 hPa Calm   1.6 km/h 83 % 0 mm
03:32 18.6 °C 15.5 °C 1011.1 hPa NNW 1.6 km/h 3.2 km/h 82 % 0 mm
03:37 18.6 °C 15.5 °C 1011.1 hPa NW 3.2 km/h 3.2 km/h 82 % 0 mm
03:42 18.6 °C 15.5 °C 1011.1 hPa NNW 3.2 km/h 4.8 km/h 82 % 0 mm
03:47 18.6 °C 15.5 °C 1011.1 hPa NW 1.6 km/h 4.8 km/h 82 % 0 mm
03:52 18.6 °C 15.5 °C 1011.1 hPa NW 1.6 km/h 4.8 km/h 82 % 0 mm
03:57 18.6 °C 15.5 °C 1011.4 hPa Calm   4.8 km/h 82 % 0 mm
04:02 18.5 °C 15.4 °C 1011.4 hPa Calm   3.2 km/h 82 % 0 mm
04:05 18.4 °C 15.3 °C 1011.4 hPa Calm   3.2 km/h 82 % 0 mm
04:10 18.3 °C 15.4 °C 1011.4 hPa Calm   3.2 km/h 83 % 0 mm
04:15 18.3 °C 15.4 °C 1011.4 hPa Calm   3.2 km/h 83 % 0 mm
04:20 18.2 °C 15.5 °C 1011.4 hPa Calm   3.2 km/h 84 % 0 mm
04:25 18.1 °C 15.4 °C 1011.4 hPa Calm   1.6 km/h 84 % 0 mm
04:30 18.1 °C 15.5 °C 1011.4 hPa Calm   1.6 km/h 85 % 0 mm
04:35 17.9 °C 15.3 °C 1011.4 hPa Calm   1.6 km/h 85 % 0 mm
04:40 17.8 °C 15.2 °C 1011.4 hPa Calm   1.6 km/h 85 % 0 mm
04:45 17.7 °C 15.3 °C 1011.4 hPa North 1.6 km/h 1.6 km/h 86 % 0 mm
04:50 17.7 °C 15.5 °C 1011.4 hPa NW 1.6 km/h 1.6 km/h 87 % 0 mm
04:55 17.8 °C 15.6 °C 1011.1 hPa NNW 1.6 km/h 3.2 km/h 87 % 0 mm
05:00 17.9 °C 15.5 °C 1011.4 hPa Calm   3.2 km/h 86 % 0 mm
05:05 17.8 °C 15.4 °C 1011.4 hPa Calm   3.2 km/h 86 % 0 mm
05:10 17.8 °C 15.6 °C 1011.4 hPa Calm   3.2 km/h 87 % 0 mm
05:15 17.8 °C 15.6 °C 1011.4 hPa Calm   3.2 km/h 87 % 0 mm
05:20 17.7 °C 15.5 °C 1011.4 hPa Calm   3.2 km/h 87 % 0 mm
05:25 17.7 °C 15.5 °C 1011.4 hPa Calm   1.6 km/h 87 % 0 mm
05:30 17.6 °C 15.4 °C 1011.4 hPa Calm   1.6 km/h 87 % 0 mm
05:35 17.4 °C 15.2 °C 1011.4 hPa Calm   1.6 km/h 87 % 0 mm
05:40 17.3 °C 15.3 °C 1011.7 hPa Calm   1.6 km/h 88 % 0 mm
05:45 17.2 °C 15.2 °C 1011.4 hPa Calm   1.6 km/h 88 % 0 mm
05:50 17.2 °C 15.4 °C 1011.7 hPa Calm   1.6 km/h 89 % 0 mm
05:55 17.1 °C 15.3 °C 1011.7 hPa Calm   1.6 km/h 89 % 0 mm
06:00 17.1 °C 15.3 °C 1011.7 hPa Calm     89 % 0 mm
06:05 16.9 °C 15.1 °C 1011.7 hPa Calm     89 % 0 mm
06:10 16.8 °C 15 °C 1011.7 hPa Calm   1.6 km/h 89 % 0 mm
06:15 16.8 °C 15.1 °C 1011.7 hPa Calm   1.6 km/h 90 % 0 mm
06:20 16.7 °C 15.1 °C 1011.7 hPa Calm   1.6 km/h 90 % 0 mm
06:25 16.6 °C 15 °C 1011.7 hPa Calm     90 % 0 mm
06:30 16.4 °C 14.8 °C 1011.7 hPa Calm   1.6 km/h 90 % 0 mm
06:35 16.3 °C 14.7 °C 1012.1 hPa Calm   1.6 km/h 90 % 0 mm
06:40 16.3 °C 14.8 °C 1012.1 hPa Calm   1.6 km/h 91 % 0 mm
06:44 16.3 °C 15 °C 1012.1 hPa Calm   1.6 km/h 92 % 0 mm
06:49 16.5 °C 15.2 °C 1012.1 hPa NW 1.6 km/h 1.6 km/h 92 % 0 mm
06:54 16.6 °C 15.3 °C 1012.1 hPa NW 1.6 km/h 3.2 km/h 92 % 0 mm
06:59 16.7 °C 15.4 °C 1012.1 hPa NW 1.6 km/h 3.2 km/h 92 % 0 mm
07:04 16.8 °C 15.5 °C 1012.1 hPa NNW 1.6 km/h 3.2 km/h 92 % 0 mm
07:08 17 °C 15.5 °C 1012.1 hPa NW 1.6 km/h 4.8 km/h 91 % 0 mm
07:13 17.2 °C 15.7 °C 1012.1 hPa NNW 3.2 km/h 4.8 km/h 91 % 0 mm
07:18 17.4 °C 15.9 °C 1012.1 hPa NW 6.4 km/h 6.4 km/h 91 % 0 mm
07:23 17.7 °C 16 °C 1012.1 hPa Calm   8 km/h 90 % 0 mm
07:28 17.9 °C 16.1 °C 1012.4 hPa WNW 3.2 km/h 9.7 km/h 89 % 0 mm
07:33 18.1 °C 16.1 °C 1012.4 hPa NNW 1.6 km/h 9.7 km/h 88 % 0 mm
07:38 18.3 °C 16.3 °C 1012.4 hPa NW 3.2 km/h 9.7 km/h 88 % 0 mm
07:40 18.3 °C 16.1 °C 1012.4 hPa NW 6.4 km/h 8 km/h 87 % 0 mm
07:45 18.6 °C 16.4 °C 1012.4 hPa NW 1.6 km/h 8 km/h 87 % 0 mm
07:50 18.8 °C 16.6 °C 1012.4 hPa NW 3.2 km/h 8 km/h 87 % 0 mm
07:55 19 °C 16.6 °C 1012.8 hPa NW 1.6 km/h 9.7 km/h 86 % 0 mm
08:00 19.3 °C 16.7 °C 1012.8 hPa NW 1.6 km/h 9.7 km/h 85 % 0 mm
08:05 19.6 °C 17 °C 1012.8 hPa Calm   9.7 km/h 85 % 0 mm
08:10 19.9 °C 17.1 °C 1012.8 hPa East 1.6 km/h 9.7 km/h 84 % 0 mm
08:15 20.2 °C 17.2 °C 1012.8 hPa NW 3.2 km/h 9.7 km/h 83 % 0 mm
08:20 20.4 °C 17.2 °C 1012.8 hPa NW 6.4 km/h 9.7 km/h 82 % 0 mm
08:25 20.4 °C 17.2 °C 1012.8 hPa NW 1.6 km/h 9.7 km/h 82 % 0 mm
08:30 20.6 °C 17.4 °C 1012.8 hPa NW 6.4 km/h 11.3 km/h 82 % 0 mm
08:35 20.7 °C 17.3 °C 1012.8 hPa WNW 6.4 km/h 11.3 km/h 81 % 0 mm
08:40 20.8 °C 17.4 °C 1013.1 hPa North 3.2 km/h 11.3 km/h 81 % 0 mm
08:46 21.1 °C 17.7 °C 1013.1 hPa NW 3.2 km/h 11.3 km/h 81 % 0 mm
08:51 21.3 °C 17.7 °C 1012.8 hPa East 3.2 km/h 11.3 km/h 80 % 0 mm
08:56 21.6 °C 18 °C 1012.8 hPa NNW 4.8 km/h 8 km/h 80 % 0 mm
09:01 21.8 °C 18.2 °C 1013.1 hPa NW 1.6 km/h 9.7 km/h 80 % 0 mm
09:02 21.9 °C 17.9 °C 1012.8 hPa North 3.2 km/h 9.7 km/h 78 % 0 mm
09:08 21.9 °C 17.7 °C 1012.8 hPa NW 6.4 km/h 11.3 km/h 77 % 0 mm
09:13 22.1 °C 18.1 °C 1012.8 hPa WNW 1.6 km/h 11.3 km/h 78 % 0 mm
09:18 22.3 °C 18.3 °C 1012.8 hPa WNW 1.6 km/h 11.3 km/h 78 % 0 mm
09:23 22.4 °C 18.2 °C 1013.1 hPa NW 6.4 km/h 11.3 km/h 77 % 0 mm
09:28 22.3 °C 17.9 °C 1012.8 hPa WNW 3.2 km/h 9.7 km/h 76 % 0 mm
09:33 22.6 °C 18.2 °C 1013.1 hPa NW 9.7 km/h 11.3 km/h 76 % 0 mm
09:38 22.6 °C 18.2 °C 1013.1 hPa NW 4.8 km/h 11.3 km/h 76 % 0 mm
09:43 22.7 °C 18.2 °C 1013.1 hPa NNW 1.6 km/h 11.3 km/h 76 % 0 mm
09:48 22.8 °C 18.3 °C 1013.1 hPa NNW 4.8 km/h 11.3 km/h 76 % 0 mm
09:53 22.9 °C 18.2 °C 1013.1 hPa NW 6.4 km/h 11.3 km/h 75 % 0 mm
09:58 23.1 °C 18.2 °C 1013.1 hPa NW 3.2 km/h 11.3 km/h 74 % 0 mm
10:03 23.3 °C 18.4 °C 1013.1 hPa NW 1.6 km/h 11.3 km/h 74 % 0 mm
10:08 23.4 °C 18.5 °C 1013.1 hPa NW 3.2 km/h 11.3 km/h 74 % 0 mm
10:13 23.8 °C 18.7 °C 1013.1 hPa NNW 4.8 km/h 9.7 km/h 73 % 0 mm
10:18 23.9 °C 18.5 °C 1013.1 hPa NW 4.8 km/h 9.7 km/h 72 % 0 mm
10:23 24.1 °C 18.5 °C 1013.1 hPa NW 9.7 km/h 11.3 km/h 71 % 0 mm
10:28 24.2 °C 18.2 °C 1013.1 hPa Calm   14.5 km/h 69 % 0 mm
10:33 24.3 °C 18.2 °C 1013.1 hPa NW 6.4 km/h 14.5 km/h 69 % 0 mm
10:38 24.4 °C 18.3 °C 1013.1 hPa NW 4.8 km/h 14.5 km/h 69 % 0 mm
10:43 24.6 °C 18.5 °C 1013.1 hPa NNW 6.4 km/h 11.3 km/h 69 % 0 mm
10:48 24.6 °C 18.1 °C 1013.1 hPa NW 4.8 km/h 11.3 km/h 67 % 0 mm
10:53 24.7 °C 18.2 °C 1013.1 hPa North 6.4 km/h 11.3 km/h 67 % 0 mm
10:58 24.8 °C 18.5 °C 1013.4 hPa Calm   14.5 km/h 68 % 0 mm
11:03 25.2 °C 18.6 °C 1013.1 hPa NW 3.2 km/h 14.5 km/h 67 % 0 mm
11:08 25.4 °C 18.8 °C 1013.1 hPa NNE 1.6 km/h 14.5 km/h 67 % 0 mm
11:13 25.7 °C 19.1 °C 1013.1 hPa North 3.2 km/h 11.3 km/h 67 % 0 mm
11:18 26 °C 18.7 °C 1013.1 hPa WSW 1.6 km/h 9.7 km/h 64 % 0 mm
11:23 26.1 °C 19 °C 1013.1 hPa NW 4.8 km/h 9.7 km/h 65 % 0 mm
11:24 26.1 °C 18.8 °C 1013.1 hPa North 6.4 km/h 9.7 km/h 64 % 0 mm
11:29 25.8 °C 18.5 °C 1013.1 hPa NW 1.6 km/h 12.9 km/h 64 % 0 mm
11:34 26.3 °C 19.4 °C 1013.1 hPa ENE 4.8 km/h 12.9 km/h 66 % 0 mm
11:39 26.7 °C 19.1 °C 1013.1 hPa WNW 4.8 km/h 12.9 km/h 63 % 0 mm
11:44 26 °C 18.4 °C 1013.1 hPa NW 1.6 km/h 14.5 km/h 63 % 0 mm
11:49 26.3 °C 19.2 °C 1013.1 hPa NNE 4.8 km/h 14.5 km/h 65 % 0 mm
11:50 26.3 °C 18.9 °C 1013.1 hPa NW 1.6 km/h 14.5 km/h 64 % 0 mm
11:55 26.4 °C 18.5 °C 1012.8 hPa NE 3.2 km/h 11.3 km/h 62 % 0 mm
12:00 26.7 °C 19.1 °C 1012.8 hPa NW 6.4 km/h 12.9 km/h 63 % 0 mm
12:05 26.4 °C 18.3 °C 1012.8 hPa NW 8 km/h 12.9 km/h 61 % 0 mm
12:10 26.4 °C 19 °C 1012.8 hPa North 1.6 km/h 12.9 km/h 64 % 0 mm
12:15 26.8 °C 18.6 °C 1012.8 hPa WNW 4.8 km/h 12.9 km/h 61 % 0 mm
12:20 26.9 °C 18.2 °C 1012.8 hPa WNW 4.8 km/h 12.9 km/h 59 % 0 mm
12:25 26.6 °C 18.5 °C 1012.8 hPa NW 1.6 km/h 12.9 km/h 61 % 0 mm
12:30 26.9 °C 18.7 °C 1012.4 hPa NW 3.2 km/h 12.9 km/h 61 % 0 mm
12:35 27.2 °C 19 °C 1012.4 hPa WNW 3.2 km/h 12.9 km/h 61 % 0 mm
12:40 27.3 °C 18.6 °C 1012.4 hPa WNW 4.8 km/h 12.9 km/h 59 % 0 mm
12:45 27.5 °C 19 °C 1012.4 hPa NNW 3.2 km/h 14.5 km/h 60 % 0 mm
12:50 27.3 °C 18.6 °C 1012.4 hPa WNW 6.4 km/h 14.5 km/h 59 % 0 mm
12:55 27.6 °C 18.6 °C 1012.4 hPa NW 3.2 km/h 14.5 km/h 58 % 0 mm
13:00 27.5 °C 18.8 °C 1012.1 hPa WNW 4.8 km/h 14.5 km/h 59 % 0 mm
13:05 27.6 °C 19.4 °C 1012.1 hPa NNE 8 km/h 12.9 km/h 61 % 0 mm
13:10 27.7 °C 18.4 °C 1012.1 hPa North 3.2 km/h 12.9 km/h 57 % 0 mm
13:15 27.9 °C 18.6 °C 1012.1 hPa NNW 9.7 km/h 16.1 km/h 57 % 0 mm
13:20 28.1 °C 18.8 °C 1012.1 hPa NNE 3.2 km/h 16.1 km/h 57 % 0 mm
13:25 28.4 °C 18.8 °C 1012.1 hPa NNW 6.4 km/h 16.1 km/h 56 % 0 mm
13:30 28.6 °C 19.2 °C 1012.1 hPa NW 11.3 km/h 14.5 km/h 57 % 0 mm
13:35 28.2 °C 18.9 °C 1012.1 hPa WNW 1.6 km/h 14.5 km/h 57 % 0 mm
13:40 28.2 °C 18.9 °C 1012.1 hPa WNW 8 km/h 14.5 km/h 57 % 0 mm
13:45 28.3 °C 18.7 °C 1012.1 hPa West 6.4 km/h 12.9 km/h 56 % 0 mm
13:50 28.7 °C 19.3 °C 1011.7 hPa North 1.6 km/h 11.3 km/h 57 % 0 mm
13:55 28.6 °C 19 °C 1011.7 hPa NNE 3.2 km/h 14.5 km/h 56 % 0 mm
14:00 28.7 °C 19.3 °C 1012.1 hPa NW 8 km/h 14.5 km/h 57 % 0 mm
14:05 28.7 °C 18.8 °C 1011.7 hPa West 3.2 km/h 14.5 km/h 55 % 0 mm
14:10 28.9 °C 19 °C 1011.7 hPa NW 4.8 km/h 12.9 km/h 55 % 0 mm
14:15 29 °C 19 °C 1011.7 hPa WSW 4.8 km/h 14.5 km/h 55 % 0 mm
14:20 29.2 °C 18.9 °C 1011.7 hPa NNW 11.3 km/h 14.5 km/h 54 % 0 mm
14:25 29.4 °C 18.8 °C 1011.7 hPa WNW 6.4 km/h 14.5 km/h 53 % 0 mm
14:30 29.2 °C 18.6 °C 1011.7 hPa NNW 1.6 km/h 12.9 km/h 53 % 0 mm
14:35 29.3 °C 19 °C 1011.7 hPa NNW 8 km/h 12.9 km/h 54 % 0 mm
14:40 29.3 °C 18.4 °C 1011.4 hPa Calm   12.9 km/h 52 % 0 mm
14:45 29.3 °C 18.1 °C 1011.4 hPa North 1.6 km/h 12.9 km/h 51 % 0 mm
14:50 29.5 °C 18.9 °C 1011.4 hPa WNW 4.8 km/h 12.9 km/h 53 % 0 mm
14:55 29.6 °C 18.7 °C 1011.4 hPa Calm   16.1 km/h 52 % 0 mm
15:00 29.9 °C 18.3 °C 1011.4 hPa North 6.4 km/h 16.1 km/h 50 % 0 mm
15:05 29.9 °C 18.3 °C 1011.4 hPa NW 4.8 km/h 16.1 km/h 50 % 0 mm
15:10 29.8 °C 17.9 °C 1011.4 hPa NW 4.8 km/h 14.5 km/h 49 % 0 mm
15:15 29.9 °C 18.7 °C 1011.4 hPa NNW 6.4 km/h 14.5 km/h 51 % 0 mm
15:20 30.1 °C 17.9 °C 1011.4 hPa NNW 3.2 km/h 14.5 km/h 48 % 0 mm
15:25 29.9 °C 17.7 °C 1011.1 hPa NW 6.4 km/h 16.1 km/h 48 % 0 mm
15:31 29.9 °C 18 °C 1011.1 hPa NW 4.8 km/h 16.1 km/h 49 % 0 mm
15:36 30.2 °C 18.3 °C 1011.1 hPa ESE 4.8 km/h 16.1 km/h 49 % 0 mm
15:41 30.3 °C 18.4 °C 1011.1 hPa North 9.7 km/h 14.5 km/h 49 % 0 mm
15:46 30.5 °C 18.2 °C 1011.1 hPa NNE 4.8 km/h 14.5 km/h 48 % 0 mm
15:51 30.2 °C 17.6 °C 1011.1 hPa NNW 4.8 km/h 22.5 km/h 47 % 0 mm
15:56 30.3 °C 17.7 °C 1011.1 hPa North 4.8 km/h 22.5 km/h 47 % 0 mm
16:01 30.1 °C 17.9 °C 1010.7 hPa NNW 8 km/h 22.5 km/h 48 % 0 mm
16:06 30.3 °C 17.7 °C 1010.7 hPa Calm   16.1 km/h 47 % 0 mm
16:11 30.4 °C 17.5 °C 1010.7 hPa NW 6.4 km/h 14.5 km/h 46 % 0 mm
16:16 30.4 °C 17.8 °C 1010.7 hPa SE 3.2 km/h 14.5 km/h 47 % 0 mm
16:21 30.5 °C 17.9 °C 1010.7 hPa NNW 6.4 km/h 12.9 km/h 47 % 0 mm
16:26 30.1 °C 18.2 °C 1010.7 hPa ENE 1.6 km/h 12.9 km/h 49 % 0 mm
16:31 30 °C 18.1 °C 1010.4 hPa North 6.4 km/h 11.3 km/h 49 % 0 mm
16:36 30.2 °C 18.3 °C 1010.4 hPa NNW 6.4 km/h 11.3 km/h 49 % 0 mm
16:37 30.3 °C 18.4 °C 1010.4 hPa North 1.6 km/h 11.3 km/h 49 % 0 mm
16:42 30.6 °C 19 °C 1010.4 hPa North 6.4 km/h 9.7 km/h 50 % 0 mm
16:47 30.5 °C 18.2 °C 1010.4 hPa Calm   11.3 km/h 48 % 0 mm
16:52 30.4 °C 18.5 °C 1010.4 hPa Calm   11.3 km/h 49 % 0 mm
16:57 30.6 °C 17.7 °C 1010.4 hPa NNW 3.2 km/h 11.3 km/h 46 % 0 mm
16:59 30.4 °C 17.8 °C 1010.4 hPa North 8 km/h 11.3 km/h 47 % 0 mm
17:04 30.2 °C 18 °C 1010.4 hPa NNE 4.8 km/h 12.9 km/h 48 % 0 mm
17:09 30.2 °C 17.6 °C 1010.4 hPa North 1.6 km/h 12.9 km/h 47 % 0 mm
17:14 30.4 °C 18.2 °C 1010.4 hPa NW 6.4 km/h 12.9 km/h 48 % 0 mm
17:19 30.4 °C 17.8 °C 1010.4 hPa NNE 4.8 km/h 12.9 km/h 47 % 0 mm
17:24 30.2 °C 18 °C 1010 hPa North 3.2 km/h 12.9 km/h 48 % 0 mm
17:29 30.2 °C 18 °C 1010 hPa Calm   12.9 km/h 48 % 0 mm
17:34 29.9 °C 17.7 °C 1010 hPa NNW 3.2 km/h 14.5 km/h 48 % 0 mm
17:39 29.9 °C 18.3 °C 1010 hPa ENE 3.2 km/h 16.1 km/h 50 % 0 mm
17:45 29.9 °C 18 °C 1010 hPa NNW 4.8 km/h 16.1 km/h 49 % 0 mm
17:50 29.9 °C 17.7 °C 1010 hPa North 1.6 km/h 16.1 km/h 48 % 0 mm
17:55 29.8 °C 17.6 °C 1010 hPa NNE 3.2 km/h 14.5 km/h 48 % 0 mm
18:00 30 °C 17.8 °C 1010 hPa Calm   14.5 km/h 48 % 0 mm
18:05 30.1 °C 17.9 °C 1010 hPa North 1.6 km/h 14.5 km/h 48 % 0 mm
18:10 30.2 °C 18 °C 1010 hPa ENE 1.6 km/h 9.7 km/h 48 % 0 mm
18:15 30 °C 18.1 °C 1010 hPa NW 4.8 km/h 9.7 km/h 49 % 0 mm
18:20 29.7 °C 17.8 °C 1010 hPa North 4.8 km/h 9.7 km/h 49 % 0 mm
18:25 29.4 °C 17.9 °C 1010 hPa ENE 3.2 km/h 11.3 km/h 50 % 0 mm
18:30 29.2 °C 18 °C 1010 hPa North 9.7 km/h 11.3 km/h 51 % 0 mm
18:35 29.2 °C 18 °C 1010 hPa Calm   11.3 km/h 51 % 0 mm
18:40 29 °C 17.8 °C 1010 hPa WNW 1.6 km/h 11.3 km/h 51 % 0 mm
18:45 28.9 °C 17.7 °C 1010 hPa ESE 1.6 km/h 12.9 km/h 51 % 0 mm
18:50 28.6 °C 17.8 °C 1010 hPa NW 1.6 km/h 12.9 km/h 52 % 0 mm
18:55 28.4 °C 17.6 °C 1010 hPa SE 8 km/h 12.9 km/h 52 % 0 mm
19:00 28.3 °C 17.5 °C 1010 hPa NNW 3.2 km/h 12.9 km/h 52 % 0 mm
19:05 28.3 °C 17.5 °C 1010 hPa ENE 1.6 km/h 12.9 km/h 52 % 0 mm
19:10 28.3 °C 17.8 °C 1010 hPa NNE 4.8 km/h 12.9 km/h 53 % 0 mm
19:15 28.2 °C 17.7 °C 1010 hPa NNW 6.4 km/h 12.9 km/h 53 % 0 mm
19:20 27.9 °C 17.7 °C 1010 hPa Calm   11.3 km/h 54 % 0 mm
19:25 27.6 °C 17.5 °C 1010 hPa WNW 1.6 km/h 16.1 km/h 54 % 0 mm
19:30 27.4 °C 17.6 °C 1010 hPa East 4.8 km/h 16.1 km/h 55 % 0 mm
19:35 27.2 °C 17.7 °C 1010.4 hPa NE 6.4 km/h 16.1 km/h 56 % 0 mm
19:40 27.1 °C 17.8 °C 1010.4 hPa NE 3.2 km/h 11.3 km/h 57 % 0 mm
19:45 27 °C 18 °C 1010.4 hPa ENE 6.4 km/h 11.3 km/h 58 % 0 mm
19:50 26.8 °C 18.1 °C 1010.4 hPa ENE 4.8 km/h 11.3 km/h 59 % 0 mm
19:55 26.7 °C 18 °C 1010.4 hPa NNE 1.6 km/h 11.3 km/h 59 % 0 mm
20:00 26.6 °C 17.9 °C 1010.4 hPa NW 3.2 km/h 9.7 km/h 59 % 0 mm
20:05 26.4 °C 18 °C 1010.4 hPa North 3.2 km/h 9.7 km/h 60 % 0 mm
20:10 26.3 °C 17.9 °C 1010.4 hPa East 3.2 km/h 9.7 km/h 60 % 0 mm
20:15 26.1 °C 17.7 °C 1010.4 hPa Calm   9.7 km/h 60 % 0 mm
20:16 26.1 °C 18 °C 1010.4 hPa ESE 3.2 km/h 9.7 km/h 61 % 0 mm
20:21 25.9 °C 17.8 °C 1010.4 hPa Calm   8 km/h 61 % 0 mm
20:26 25.8 °C 17.7 °C 1010.4 hPa SSE 1.6 km/h 8 km/h 61 % 0 mm
20:31 25.6 °C 17.8 °C 1010.4 hPa Calm   8 km/h 62 % 0 mm
20:36 25.6 °C 17.8 °C 1010.4 hPa East 1.6 km/h 6.4 km/h 62 % 0 mm
20:41 25.4 °C 17.8 °C 1010.7 hPa Calm   6.4 km/h 63 % 0 mm
20:46 25.2 °C 17.7 °C 1010.7 hPa East 1.6 km/h 6.4 km/h 63 % 0 mm
20:51 25.1 °C 17.8 °C 1010.7 hPa Calm   3.2 km/h 64 % 0 mm
20:56 24.9 °C 17.6 °C 1010.7 hPa Calm   3.2 km/h 64 % 0 mm
21:01 24.7 °C 17.7 °C 1010.7 hPa Calm   3.2 km/h 65 % 0 mm
21:06 24.6 °C 17.8 °C 1010.7 hPa Calm   3.2 km/h 66 % 0 mm
21:11 24.4 °C 17.6 °C 1010.7 hPa Calm   3.2 km/h 66 % 0 mm
21:16 24.2 °C 17.7 °C 1010.7 hPa Calm   3.2 km/h 67 % 0 mm
21:21 24.1 °C 17.8 °C 1010.7 hPa Calm   1.6 km/h 68 % 0 mm
21:26 23.8 °C 17.8 °C 1010.7 hPa Calm   1.6 km/h 69 % 0 mm
21:31 23.7 °C 17.7 °C 1010.7 hPa Calm   1.6 km/h 69 % 0 mm
21:36 23.6 °C 17.8 °C 1010.7 hPa Calm   1.6 km/h 70 % 0 mm
21:41 23.5 °C 17.7 °C 1010.7 hPa ENE 1.6 km/h 1.6 km/h 70 % 0 mm
21:46 23.5 °C 17.9 °C 1010.7 hPa Calm   3.2 km/h 71 % 0 mm
21:51 23.6 °C 18 °C 1010.7 hPa Calm   3.2 km/h 71 % 0 mm
21:56 23.4 °C 17.8 °C 1010.7 hPa Calm   3.2 km/h 71 % 0 mm
22:01 23.4 °C 17.8 °C 1010.7 hPa Calm   1.6 km/h 71 % 0 mm
22:04 23.3 °C 17.7 °C 1010.7 hPa Calm   1.6 km/h 71 % 0 mm
22:09 23.3 °C 17.7 °C 1010.7 hPa Calm   1.6 km/h 71 % 0 mm
22:14 23.2 °C 17.9 °C 1010.7 hPa Calm   1.6 km/h 72 % 0 mm
22:19 23.2 °C 17.9 °C 1011.1 hPa Calm   1.6 km/h 72 % 0 mm
22:24 23.2 °C 17.9 °C 1011.1 hPa Calm   1.6 km/h 72 % 0 mm
22:29 23.1 °C 18 °C 1011.1 hPa Calm   1.6 km/h 73 % 0 mm
22:34 23 °C 17.9 °C 1011.1 hPa Calm   1.6 km/h 73 % 0 mm
22:39 23 °C 17.9 °C 1011.1 hPa Calm   1.6 km/h 73 % 0 mm
22:44 22.9 °C 18 °C 1011.1 hPa Calm   1.6 km/h 74 % 0 mm
22:49 22.9 °C 18 °C 1011.1 hPa Calm   3.2 km/h 74 % 0 mm
22:54 22.8 °C 17.9 °C 1011.1 hPa Calm   3.2 km/h 74 % 0 mm
22:59 22.7 °C 18 °C 1011.4 hPa Calm   3.2 km/h 75 % 0 mm
23:04 22.7 °C 18 °C 1011.4 hPa ESE 1.6 km/h 3.2 km/h 75 % 0 mm
23:09 22.7 °C 18 °C 1011.4 hPa Calm   3.2 km/h 75 % 0 mm
23:14 22.6 °C 17.9 °C 1011.7 hPa Calm   3.2 km/h 75 % 0 mm
23:19 22.6 °C 18.2 °C 1011.7 hPa Calm   1.6 km/h 76 % 0 mm
23:24 22.5 °C 18.1 °C 1011.7 hPa Calm   3.2 km/h 76 % 0 mm
23:29 22.4 °C 18 °C 1011.7 hPa Calm   3.2 km/h 76 % 0 mm
23:34 22.4 °C 18 °C 1012.1 hPa Calm   3.2 km/h 76 % 0 mm
23:39 22.4 °C 18.2 °C 1012.1 hPa SE 3.2 km/h 3.2 km/h 77 % 0 mm
23:44 22.4 °C 18.2 °C 1012.1 hPa Calm   3.2 km/h 77 % 0 mm
23:49 22.4 °C 18.2 °C 1012.4 hPa Calm   4.8 km/h 77 % 0 mm
23:54 22.4 °C 18.2 °C 1012.4 hPa SSW 3.2 km/h 4.8 km/h 77 % 0 mm
23:59 22.3 °C 18.3 °C 1012.8 hPa SSW 1.6 km/h 8 km/h 78 % 0 mm
Spring, Texas: Villages of Bridgestone
Compliments of Weather Underground - 3.25 mb

Script developed by  Jim McMurry - jmcmurry@mwt.net Adapted for the template by  Wim van der Kuil - Leuven-Template.eu

You find our weather info also at:

UK Metoffice

WeatherCloud

Weather Underground

Mid-South Weather Network

AWEKAS

Citizen Weather Observer Program (CWOP)

HAMweather, WeatherForYou, PWS Weather

Equipment we use:

Weather-station
Davis Vantage Vue

Weather-program
Meteohub

Weather-server
Debian 7.9 x86 (Guest)

Provider
DreamHost

Davis Vantage Vue

Meteohub

Debian 7.9 x86 (Guest)

DreamHost